Погода в Джульфе

Азербайджан     38°57′11″N   45°37′48″E
темп.,
°C
ветер,
м/с
пор.,
м/с
влажн.,
%
обл.,
%
осадки,
мм/ч
давл.,
гПа
погр.,
м
19 апреля, пн
пн1901:00+19вюв113347 0.0 101411
04:00+17вюв223979 0.0 101519
07:00+17ссз11455 0.0 101711
10:00+21сз3433100 0.0 1017943
13:00+24сз362698 0.0 10152142
16:00+26ссз4723100 0.0 10132091
19:00+25зсз0127100 0.0 1013448
22:00+21вюв113148 0.0 101411
20 апреля, вт
вт2001:00+21в1232100 0.0 101412
04:00+20юв0135100 0.0 101411
07:00+21всв1133100 0.0 101312
10:00+24з122593 0.0 1014625
13:00+28зюз1417100 0.0 10111851
16:00+22ююз6939100 0.2 1013468
19:00+24всв2330100 0.6 1011340
22:00+21св223616 0.7 101115
21 апреля, ср
ср2101:00+20юв11378 0.0 101111
04:00+19вюв113686 0.0 101111
07:00+19вюв113687 0.0 101212
10:00+25ю1224100 0.0 1012588
13:00+31ююз581496 0.0 10094208
16:00+26св4426100 0.3 1010659
19:00+21в564195 0.6 1012181
22:00+20в33445 0.7 101360
22 апреля, чт
чт2201:00+19в1145100 0.0 101212
04:00+19вюв114297 0.0 101211
07:00+19вюв224098 0.0 101317
10:00+25юв23275 0.0 1013746
13:00+29юз391597 0.0 10114318
16:00+31ююз81113100 0.0 10084482
19:00+27ююв4619100 0.0 1009237
22:00+20вюв444499 0.0 1013201
23 апреля, пт
пт2301:00+17вюв355824 0.0 1014178
04:00+15вюв33600 0.0 101477
07:00+16св02560 0.0 101447
10:00+20ю11390 0.0 1015908
13:00+23ююв23280 0.0 10131653
16:00+25вюв44251 0.0 10112077
19:00+20вюв67410 0.0 1013511
22:00+15вюв57560 0.0 1016389